Meteo orario Abapo

Oggi, 4 Marzo, Giovedi

Tempo Temperatura Precipitazioni Vento Pressione Umidità
00:00 +24°C° 0 mm 0 m/s 711 mm Hg 69%
01:00 +24°C° 0 mm 0 m/s 711 mm Hg 70%
02:00 +23°C° 0 mm 0 m/s 710 mm Hg 71%
03:00 +23°C° 0 mm 0 m/s 710 mm Hg 74%
04:00 +22°C° 0 mm 0 m/s 710 mm Hg 77%
05:00 +21°C° 0 mm 0 m/s 710 mm Hg 80%
06:00 +25°C° 0 mm 1 m/s 710 mm Hg 76%
07:00 +26°C° 0 mm 1 m/s 711 mm Hg 72%
08:00 +27°C° 0 mm 1 m/s 711 mm Hg 68%
09:00 +30°C° 0.1 mm 1 m/s 711 mm Hg 60%
10:00 +32°C° 0.1 mm 2 m/s 712 mm Hg 52%
11:00 +35°C° 0.1 mm 2 m/s 712 mm Hg 44%
12:00 +36°C° 0 mm 3 m/s 711 mm Hg 41%
13:00 +37°C° 0 mm 3 m/s 710 mm Hg 39%
14:00 +37°C° 0 mm 3 m/s 709 mm Hg 36%
15:00 +36°C° 0.1 mm 3 m/s 709 mm Hg 42%
16:00 +35°C° 0.1 mm 3 m/s 708 mm Hg 48%
17:00 +33°C° 0.1 mm 3 m/s 708 mm Hg 54%
18:00 +30°C° 2.6 mm 3 m/s 708 mm Hg 66%
19:00 +27°C° 2.6 mm 2 m/s 709 mm Hg 78%
20:00 +25°C° 2.6 mm 2 m/s 709 mm Hg 91%
21:00 +25°C° 1.7 mm 1 m/s 709 mm Hg 93%
22:00 +24°C° 1.7 mm 1 m/s 710 mm Hg 95%
23:00 +22°C° 1.7 mm 0 m/s 710 mm Hg 97%

Domani, 5 Marzo, Venerdi

Tempo Temperatura Precipitazioni Vento Pressione Umidità
00:00 +24°C° 1 mm 1 m/s 710 mm Hg 97%
01:00 +23°C° 1 mm 1 m/s 710 mm Hg 97%
02:00 +23°C° 1 mm 1 m/s 709 mm Hg 97%
03:00 +23°C° 3.6 mm 1 m/s 710 mm Hg 97%
04:00 +23°C° 3.6 mm 2 m/s 710 mm Hg 98%
05:00 +23°C° 3.6 mm 2 m/s 710 mm Hg 98%
06:00 +21°C° 6.7 mm 2 m/s 710 mm Hg 98%
07:00 +22°C° 6.7 mm 1 m/s 711 mm Hg 98%
08:00 +22°C° 6.7 mm 1 m/s 712 mm Hg 98%
09:00 +24°C° 0.3 mm 1 m/s 712 mm Hg 90%
10:00 +25°C° 0.3 mm 2 m/s 712 mm Hg 83%
11:00 +27°C° 0.3 mm 2 m/s 712 mm Hg 75%
12:00 +29°C° 0 mm 2 m/s 712 mm Hg 61%
13:00 +33°C° 0 mm 3 m/s 711 mm Hg 48%
14:00 +35°C° 0 mm 3 m/s 711 mm Hg 34%
15:00 +34°C° 0 mm 3 m/s 710 mm Hg 38%
16:00 +32°C° 0 mm 2 m/s 710 mm Hg 42%
17:00 +32°C° 0 mm 2 m/s 709 mm Hg 46%
18:00 +30°C° 0 mm 1 m/s 709 mm Hg 55%
19:00 +27°C° 0 mm 1 m/s 710 mm Hg 63%
20:00 +25°C° 0 mm 1 m/s 710 mm Hg 72%
21:00 +25°C° 0 mm 1 m/s 710 mm Hg 74%
22:00 +24°C° 0 mm 1 m/s 711 mm Hg 76%
23:00 +23°C° 0 mm 1 m/s 711 mm Hg 77%

Dopodomani, 6 Marzo, Sabato

Tempo Temperatura Precipitazioni Vento Pressione Umidità
00:00 +23°C° 0 mm 1 m/s 710 mm Hg 77%
01:00 +23°C° 0 mm 1 m/s 710 mm Hg 76%
02:00 +23°C° 0 mm 1 m/s 710 mm Hg 75%
03:00 +22°C° 0 mm 1 m/s 710 mm Hg 75%
04:00 +22°C° 0 mm 1 m/s 709 mm Hg 76%
05:00 +22°C° 0 mm 1 m/s 709 mm Hg 76%
06:00 +23°C° 0 mm 1 m/s 710 mm Hg 71%
07:00 +25°C° 0 mm 1 m/s 710 mm Hg 65%
08:00 +27°C° 0 mm 1 m/s 711 mm Hg 60%
09:00 +30°C° 0 mm 1 m/s 711 mm Hg 50%
10:00 +34°C° 0 mm 1 m/s 712 mm Hg 39%
11:00 +39°C° 0 mm 1 m/s 712 mm Hg 29%
12:00 +39°C° 0 mm 1 m/s 711 mm Hg 27%
13:00 +40°C° 0 mm 1 m/s 711 mm Hg 26%
14:00 +40°C° 0 mm 1 m/s 710 mm Hg 24%
15:00 +39°C° 0 mm 1 m/s 709 mm Hg 26%
16:00 +37°C° 0 mm 2 m/s 709 mm Hg 28%
17:00 +36°C° 0 mm 2 m/s 708 mm Hg 31%
18:00 +32°C° 0 mm 2 m/s 708 mm Hg 41%
19:00 +29°C° 0 mm 1 m/s 709 mm Hg 51%
20:00 +26°C° 0 mm 1 m/s 709 mm Hg 62%
21:00 +25°C° 0 mm 1 m/s 709 mm Hg 63%
22:00 +25°C° 0 mm 1 m/s 710 mm Hg 64%
23:00 +24°C° 0 mm 1 m/s 710 mm Hg 65%

7 Marzo, Domenica

Tempo Temperatura Precipitazioni Vento Pressione Umidità
00:00 +24°C° 0 mm 1 m/s 710 mm Hg 65%
01:00 +23°C° 0 mm 1 m/s 709 mm Hg 65%
02:00 +23°C° 0 mm 1 m/s 709 mm Hg 64%
03:00 +22°C° 0 mm 1 m/s 709 mm Hg 65%
04:00 +22°C° 0 mm 1 m/s 709 mm Hg 65%
05:00 +22°C° 0 mm 1 m/s 709 mm Hg 65%
06:00 +24°C° 0 mm 1 m/s 710 mm Hg 61%
07:00 +25°C° 0 mm 1 m/s 710 mm Hg 58%
08:00 +27°C° 0 mm 1 m/s 711 mm Hg 54%
09:00 +31°C° 0 mm 1 m/s 711 mm Hg 45%
10:00 +33°C° 0 mm 0 m/s 712 mm Hg 36%
11:00 +38°C° 0 mm 0 m/s 712 mm Hg 27%
12:00 +41°C° 0 mm 1 m/s 711 mm Hg 26%
13:00 +41°C° 0 mm 1 m/s 711 mm Hg 24%
14:00 +41°C° 0 mm 1 m/s 710 mm Hg 22%
15:00 +40°C° 0 mm 1 m/s 709 mm Hg 25%
16:00 +37°C° 0 mm 1 m/s 709 mm Hg 28%
17:00 +37°C° 0 mm 2 m/s 708 mm Hg 31%
18:00 +33°C° 0 mm 1 m/s 708 mm Hg 40%
19:00 +30°C° 0 mm 1 m/s 708 mm Hg 49%
20:00 +27°C° 0 mm 1 m/s 709 mm Hg 57%
21:00 +26°C° 0 mm 1 m/s 709 mm Hg 60%
22:00 +25°C° 0 mm 1 m/s 709 mm Hg 63%
23:00 +25°C° 0 mm 1 m/s 710 mm Hg 65%

8 Marzo, Lunedi

Tempo Temperatura Precipitazioni Vento Pressione Umidità
00:00 +24°C° 0 mm 1 m/s 710 mm Hg 66%
01:00 +24°C° 0 mm 1 m/s 710 mm Hg 66%
02:00 +23°C° 0 mm 1 m/s 710 mm Hg 67%
03:00 +23°C° 0 mm 1 m/s 710 mm Hg 67%
04:00 +22°C° 0 mm 1 m/s 709 mm Hg 66%
05:00 +22°C° 0 mm 1 m/s 709 mm Hg 66%
06:00 +24°C° 0 mm 1 m/s 710 mm Hg 61%
07:00 +25°C° 0 mm 1 m/s 711 mm Hg 57%
08:00 +27°C° 0 mm 1 m/s 711 mm Hg 52%
09:00 +31°C° 0 mm 1 m/s 712 mm Hg 44%
10:00 +35°C° 0 mm 1 m/s 712 mm Hg 35%
11:00 +40°C° 0 mm 1 m/s 712 mm Hg 26%
12:00 +41°C° 0 mm 1 m/s 711 mm Hg 24%
13:00 +42°C° 0 mm 1 m/s 711 mm Hg 22%
14:00 +42°C° 0 mm 1 m/s 710 mm Hg 20%
15:00 +41°C° 0 mm 2 m/s 710 mm Hg 22%
16:00 +39°C° 0 mm 2 m/s 709 mm Hg 25%
17:00 +37°C° 0 mm 3 m/s 708 mm Hg 27%
18:00 +35°C° 0 mm 2 m/s 709 mm Hg 36%
19:00 +31°C° 0 mm 2 m/s 709 mm Hg 45%
20:00 +29°C° 0 mm 1 m/s 709 mm Hg 55%
21:00 +27°C° 0 mm 1 m/s 710 mm Hg 59%
22:00 +26°C° 0 mm 1 m/s 710 mm Hg 63%
23:00 +25°C° 0 mm 1 m/s 710 mm Hg 67%

9 Marzo, Martedi

Tempo Temperatura Precipitazioni Vento Pressione Umidità
00:00 +25°C° 0 mm 1 m/s 710 mm Hg 66%
01:00 +25°C° 0 mm 1 m/s 710 mm Hg 66%
02:00 +25°C° 0 mm 1 m/s 710 mm Hg 65%
03:00 +24°C° 0 mm 1 m/s 710 mm Hg 65%
04:00 +24°C° 0 mm 1 m/s 709 mm Hg 66%
05:00 +23°C° 0 mm 1 m/s 709 mm Hg 66%
06:00 +25°C° 0 mm 1 m/s 710 mm Hg 61%
07:00 +26°C° 0 mm 1 m/s 710 mm Hg 57%
08:00 +28°C° 0 mm 1 m/s 711 mm Hg 53%
09:00 +31°C° 0 mm 1 m/s 711 mm Hg 45%
10:00 +35°C° 0 mm 1 m/s 711 mm Hg 37%
11:00 +40°C° 0 mm 1 m/s 711 mm Hg 28%
12:00 +40°C° 0 mm 1 m/s 711 mm Hg 26%
13:00 +40°C° 0 mm 1 m/s 710 mm Hg 23%
14:00 +41°C° 0 mm 2 m/s 709 mm Hg 21%
15:00 +40°C° 0 mm 2 m/s 709 mm Hg 24%
16:00 +39°C° 0 mm 3 m/s 708 mm Hg 26%
17:00 +37°C° 0 mm 3 m/s 708 mm Hg 29%
18:00 +35°C° 0 mm 3 m/s 708 mm Hg 39%
19:00 +31°C° 0 mm 2 m/s 708 mm Hg 48%
20:00 +29°C° 0 mm 2 m/s 708 mm Hg 57%
21:00 +27°C° 0 mm 2 m/s 709 mm Hg 61%
22:00 +26°C° 0 mm 1 m/s 709 mm Hg 65%
23:00 +25°C° 0 mm 1 m/s 709 mm Hg 69%
Mostrare altro

Abbiamo bisogno del tuo consenso

Meteoprog e i nostri fornitori di servizi possono memorizzare e accedere a dati personali come cookie, identificatori di dispositivi o altre tecnologie simili sul tuo dispositivo e possono elaborare tali dati per personalizzare i contenuti e gli annunci, nonché fornire funzionalità dei social media e analizzarne il traffico.

  • Archiviare e/o accedere alle informazioni sul tuo dispositivo

    Cookie, identificatori di dispositivi o altre informazioni possono essere memorizzati o resi accessibili sul tuo dispositivo per le finalità sopra indicate.

  • Annunci e contenuti personalizzati, misurazione di annunci e contenuti, approfondimenti sul pubblico e sviluppo di prodotti

    Gli annunci e i contenuti possono essere personalizzati in base a un profilo. È possibile aggiungere più dati per personalizzare meglio annunci e contenuti. È possibile misurare il rendimento degli annunci e dei contenuti. È possibile ricavare informazioni sul pubblico che ha visto gli annunci e i contenuti. Tali dati possono essere utilizzati per sviluppare o migliorare l'esperienza, i sistemi e il software dell'utente.

Cliccando su “Accetto”, acconsenti all'uso di cookie, identificatori di dispositivo, web beacon o altre tecnologie simili. Puoi modificare le impostazioni nel browser del tuo dispositivo.

Per determinati scopi, è possibile fare affidamento su interessi legali, piuttosto che sul consenso. Puoi approfondire questo argomento consultando la nostra Informativa sulla privacy e sui cookie.